Simultaneous Nadir Overpasses (SNOs) Predictions

Prediction of SNOs between NOAA-19 and METOP-C Satellite Orbit:

Table of predicted SNOs for the next 14.0 days since TLE Epoch: 9/3/2022
Index Date (NOAA-19) Time (NOAA-19) Lat,Lon (NOAA-19) SZA (NOAA-19 ) Date (METOP-C) Time (METOP-C) Lat,Lon (METOP-C) SZA (METOP-C ) Distance(km) Time Diff (sec)
1 09/07/2022 11:53:05 -80.89,-144.87 103.54 09/07/2022 11:54:04 -80.89,-144.77 103.51 1.79 59
2 09/07/2022 12:44:01 80.89, 22.33 76.47 09/07/2022 12:44:46 80.88, 22.37 76.48 1.32 45
3 09/07/2022 13:35:04 -80.88,-170.09 103.49 09/07/2022 13:35:25 -80.90,-169.92 103.46 3.25 21
4 09/07/2022 14:26:00 80.88, -2.88 76.52 09/07/2022 14:26:07 80.89, -2.78 76.54 1.81 7
5 09/07/2022 15:17:02 -80.88, 164.70 103.44 09/07/2022 15:16:46 -80.89, 164.57 103.45 2.45 16
6 09/07/2022 16:07:59 80.89, -28.46 76.54 09/07/2022 16:07:28 80.88, -28.29 76.54 3.15 31
7 09/07/2022 16:59:02 -80.88, 139.12 103.42 09/07/2022 16:58:08 -80.88, 139.07 103.45 0.91 54



Historial Predications of SNOs between NOAA-19 and METOP-C
